Regional Weather Roundup
Issued by NWS

Home | Current Version | Previous Version | Text Only | Print | Product List | Glossary Off
Versions: 1 2 3 4 5 6 7 8 9 10 11 12 13 14 15 16 17 18 19 20 21 22 23 24 25 26 27 28 29 30 31 32 33 34 35 36 37 38 39 40 41 42 43 44 45 46 47 48 49 50

000
ASUS45 KTFX 021410
RWRMT
MONTANA REGIONAL WEATHER ROUNDUP
NATIONAL WEATHER SERVICE GREAT FALLS MT
800 AM MDT THU JUL 02 2015

NOTE: "FAIR" INDICATES FEW OR NO CLOUDS BELOW 12000 FEET WITH NO
SIGNIFICANT WEATHER AND/OR OBSTRUCTIONS TO VISIBILITY.

MTZ001>007-043-021500-
WEST OF THE DIVIDE

CITY           SKY/WX    TMP DP  RH WIND       PRES   REMARKS
KALISPELL      MOSUNNY   74  51  44 NE10      30.12R
MISSOULA       SUNNY     72  51  47 SE17      30.14R
BUTTE          SUNNY     57  49  74 CALM      30.28S
MULLAN PASS    SUNNY     62  44  51 SE8       30.25S
DEER LODGE       N/A     64  54  68 CALM      30.28R
EUREKA           N/A     72  55  56 CALM      30.14R
HAMILTON         N/A     64  45  48 S6        30.16R
RONAN            N/A     69  63  81 CALM      30.16R
$$

MTZ008-052>055-021500-
SOUTHWEST MONTANA

CITY           SKY/WX    TMP DP  RH WIND       PRES   REMARKS
BOZEMAN        SUNNY     63  52  67 CALM      30.22S
DILLON         SUNNY     65  51  60 NE6       30.24R
W YELLOWSTONE  MOSUNNY   55  45  67 CALM      30.31S
THREE FORKS      N/A     65  65 100 CALM      30.19S
TWIN BRIDGES     N/A     66  49  54 N13       30.19R
$$

MTZ009-010-012-014-046-048-049-054-021500-
EAST SLOPES AND CENTRAL MONTANA

CITY           SKY/WX    TMP DP  RH WIND       PRES   REMARKS
CUT BANK       SUNNY     61  54  77 SW3       30.22S
GREAT FALLS    SUNNY     66  52  60 VRB3      30.21S
MALMSTROM AFB  SUNNY     65  53  67 SW2       30.21S
HELENA         SUNNY     69  50  50 W8        30.21S
$$

MTZ011-013-016-021-045-047-050-051-021500-
NORTH CENTRAL MONTANA

CITY           SKY/WX    TMP DP  RH WIND       PRES   REMARKS
HAVRE          SUNNY     61  55  81 W5        30.17R
LEWISTOWN      SUNNY     64  54  69 W7        30.23R
CHINOOK          N/A     63  57  82 W7        30.16R
FORT BENTON      N/A     63  54  72 CALM      30.21R
$$

MTZ017>020-022>027-061-062-021500-
NORTHEAST MONTANA

CITY           SKY/WX    TMP DP  RH WIND       PRES   REMARKS
GLASGOW        SUNNY     62  56  80 W9        30.09R
JORDAN           N/A     69  54  58 W12       30.11F
SIDNEY         SUNNY     63  57  82 W9        30.06R
WOLF POINT     SUNNY     63  59  87 W7        30.07R FOG
MALTA            N/A     62  56  81 SW9       30.09R
PLENTYWOOD       N/A     63  63 100 NW7       30.06R
$$

MTZ028>42-056>058-021500-
SOUTHCENTRAL AND SOUTHEAST MONTANA

CITY           SKY/WX    TMP DP  RH WIND       PRES   REMARKS
BAKER          MOSUNNY   62  59  90 W10       30.10R
BILLINGS       MOSUNNY   69  54  58 CALM      30.19R
LIVINGSTON     SUNNY     62  51  67 NW7       30.23S
MILES CITY     SUNNY     69  55  60 NW12      30.11R
FORSYTH          N/A     66  61  82 CALM      30.13R
LAUREL           N/A     68  52  56 CALM      30.16R
ROUNDUP          N/A     67  54  63 CALM      30.08S
$$

REGIONAL REPORTS...DAKOTAS

CITY           SKY/WX    TMP DP  RH WIND       PRES   REMARKS
WILLISTON      PTSUNNY   61  55  81 CALM      30.04R
MINOT          PTSUNNY   66  61  84 W9        29.97S HAZE
DICKINSON      SUNNY     64  58  80 NW15      30.03R
BEACH          FAIR      63  61  94 NW9       30.08S
CROSBY         FAIR      64  64 100 NW7       30.03S FOG
BISMARCK       MOSUNNY   68  62  81 CALM      29.99R HAZE
GRAND FORKS    SUNNY     64  57  78 S8        29.95S
FARGO          SUNNY     65  55  70 S12       29.99S
BUFFALO SD       N/A     66  59  78 NW12      30.02R
RAPID CITY     SUNNY     68  63  84 N15       30.07R
$$

REGIONAL REPORTS...WYOMING/IDAHO/WASHINGTON

CITY           SKY/WX    TMP DP  RH WIND       PRES   REMARKS
GILLETTE       PTSUNNY   64  57  78 N5        30.17R
SHERIDAN       SUNNY     71  55  56 W8        30.18S
BUFFALO WY     SUNNY     64  56  75 N9        30.23S
CODY           SUNNY     64  50  59 E5        30.24R
YELLOWSTONE LA   N/A     56  45  66 CALM      30.39R
IDAHO FALLS    SUNNY     65  54  67 N8        30.14R
SALMON         SUNNY     57  46  67 CALM      30.16R
BOISE          SUNNY     74  43  32 SE5       30.01R
SPOKANE        MOSUNNY   73  50  44 NE7       30.03R
$$

REGIONAL REPORTS...ALBERTA

CITY           SKY/WX    TMP DP  RH WIND       PRES   REMARKS
EDMONTON       MOSUNNY   66  55  68 CALM      30.09S
CALGARY        MOSUNNY   63  54  72 CALM      30.19F
LETHBRIDGE     MOSUNNY   63  57  82 SW7       30.19R
MEDICINE HAT   SUNNY     61  57  88 S7        30.15S SMOKE
WATERTON GATE    N/A     57  52  82 SW6         N/A
MILK RIVER       N/A     63  54  72 W9          N/A
ONEFOUR          N/A     59  55  88 NW12        N/A
$$

REGIONAL REPORTS...SASKATCHEWAN

CITY           SKY/WX    TMP DP  RH WIND       PRES   REMARKS
SWIFT CURRENT  CLOUDY    61 N/A N/A W7        30.10R VSB 1
REGINA         PTSUNNY   64  61  88 NW3       30.04R
SASKATOON      CLOUDY    63  63 100 W6        30.04F FOG
CYPRESS HILLS    N/A     57  54  88 NW6         N/A
VAL MARIE        N/A     63  59  88 NW12        N/A
ASSINIBOIA       N/A     66  57  72 W3          N/A
$$



USA.gov is the U.S. government's official web portal to all federal, state and local government web resources and services.